TimeEDT,TemperatureF,Dew PointF,Humidity,Sea Level PressureIn,VisibilityMPH,Wind Direction,Wind SpeedMPH,Gust SpeedMPH,PrecipitationIn,Events,Conditions,WindDirDegrees,DateUTC
12:15 AM,64.4,59.0,83,30.03,10.0,East,5.8,-,N/A,,Scattered Clouds,80,2012-10-15 04:15:00
12:35 AM,64.4,59.0,83,30.02,7.0,East,4.6,-,N/A,,Clear,80,2012-10-15 04:35:00
12:55 AM,62.6,59.0,88,30.01,7.0,East,3.5,-,N/A,,Scattered Clouds,80,2012-10-15 04:55:00
1:15 AM,62.6,59.0,88,30.01,7.0,Calm,Calm,-,N/A,,Scattered Clouds,0,2012-10-15 05:15:00
1:35 AM,62.6,57.2,82,30.00,7.0,ENE,3.5,-,N/A,,Scattered Clouds,60,2012-10-15 05:35:00
1:55 AM,62.6,57.2,82,29.99,5.0,East,3.5,-,N/A,,Haze,80,2012-10-15 05:55:00
2:15 AM,62.6,59.0,88,29.99,7.0,Calm,Calm,-,N/A,,Mostly Cloudy,0,2012-10-15 06:15:00
2:35 AM,62.6,59.0,88,29.99,7.0,Calm,Calm,-,N/A,,Overcast,0,2012-10-15 06:35:00
2:55 AM,62.6,59.0,88,29.97,7.0,ESE,4.6,-,N/A,,Overcast,110,2012-10-15 06:55:00
3:15 AM,62.6,57.2,82,29.96,5.0,ESE,4.6,-,N/A,Rain,Light Rain,120,2012-10-15 07:15:00
3:35 AM,62.6,57.2,82,29.95,4.0,SSE,3.5,-,N/A,Rain,Light Rain,150,2012-10-15 07:35:00
3:55 AM,62.6,59.0,88,29.94,1.0,SSE,5.8,-,N/A,Rain,Heavy Rain,150,2012-10-15 07:55:00
4:15 AM,62.6,59.0,88,29.96,0.8,Calm,Calm,-,N/A,Rain,Heavy Rain,0,2012-10-15 08:15:00
4:35 AM,62.6,59.0,88,29.94,1.0,Calm,Calm,-,N/A,Rain,Light Rain,0,2012-10-15 08:35:00
4:55 AM,62.6,59.0,88,29.94,7.0,SW,4.6,-,N/A,Rain,Rain,220,2012-10-15 08:55:00
5:15 AM,64.4,59.0,83,29.94,3.0,SW,3.5,-,N/A,Rain,Rain,230,2012-10-15 09:15:00
5:35 AM,64.4,60.8,88,29.95,5.0,West,3.5,-,N/A,Rain,Light Rain,270,2012-10-15 09:35:00
5:55 AM,64.4,60.8,88,29.95,7.0,Calm,Calm,-,N/A,,Overcast,0,2012-10-15 09:55:00
6:15 AM,64.4,60.8,88,29.95,5.0,Calm,Calm,-,N/A,,Overcast,0,2012-10-15 10:15:00
6:35 AM,64.4,60.8,88,29.95,2.5,Calm,Calm,-,N/A,,Overcast,0,2012-10-15 10:35:00
6:55 AM,64.4,60.8,88,29.95,5.0,Calm,Calm,-,N/A,,Overcast,0,2012-10-15 10:55:00
7:15 AM,64.4,60.8,88,29.94,1.8,Calm,Calm,-,N/A,,Overcast,0,2012-10-15 11:15:00
7:35 AM,64.4,60.8,88,29.95,0.5,NW,3.5,-,N/A,Fog,Fog,320,2012-10-15 11:35:00
7:55 AM,64.4,59.0,83,29.94,0.5,Calm,Calm,-,N/A,,Haze,0,2012-10-15 11:55:00
8:15 AM,62.6,59.0,88,29.96,0.8,NW,3.5,-,N/A,,Overcast,310,2012-10-15 12:15:00
8:35 AM,62.6,59.0,88,29.96,1.5,WNW,3.5,-,N/A,,Haze,290,2012-10-15 12:35:00
8:55 AM,62.6,59.0,88,29.97,1.8,Calm,Calm,-,N/A,,Mostly Cloudy,0,2012-10-15 12:55:00
9:15 AM,62.6,57.2,82,29.97,1.0,Calm,Calm,-,N/A,,Haze,0,2012-10-15 13:15:00
9:35 AM,62.6,57.2,82,29.97,0.8,Calm,Calm,-,N/A,,Haze,0,2012-10-15 13:35:00
9:55 AM,62.6,59.0,88,29.97,7.0,Calm,Calm,-,N/A,,Clear,0,2012-10-15 13:55:00
10:15 AM,62.6,59.0,88,29.98,10.0,NW,3.5,-,N/A,,Clear,310,2012-10-15 14:15:00
10:35 AM,66.2,53.6,64,29.98,10.0,NW,6.9,-,N/A,,Scattered Clouds,320,2012-10-15 14:35:00
10:55 AM,66.2,51.8,60,29.98,10.0,NW,4.6,-,N/A,,Scattered Clouds,320,2012-10-15 14:55:00
11:15 AM,68.0,50.0,52,29.97,10.0,WNW,8.1,-,N/A,,Scattered Clouds,290,2012-10-15 15:15:00
11:35 AM,68.0,50.0,52,29.97,10.0,WNW,8.1,-,N/A,,Clear,290,2012-10-15 15:35:00
11:55 AM,68.0,48.2,49,29.97,10.0,WNW,5.8,-,N/A,,Clear,300,2012-10-15 15:55:00
12:15 PM,69.8,50.0,49,29.97,10.0,NW,8.1,-,N/A,,Clear,310,2012-10-15 16:15:00
12:35 PM,69.8,46.4,43,29.97,10.0,NW,8.1,19.6,N/A,,Scattered Clouds,310,2012-10-15 16:35:00
12:55 PM,69.8,46.4,43,29.96,10.0,WNW,10.4,19.6,N/A,,Scattered Clouds,300,2012-10-15 16:55:00
1:15 PM,69.8,42.8,38,29.96,10.0,WNW,10.4,21.9,N/A,,Clear,290,2012-10-15 17:15:00
1:35 PM,69.8,42.8,38,29.95,10.0,NW,11.5,24.2,N/A,,Clear,310,2012-10-15 17:35:00
1:55 PM,69.8,42.8,38,29.95,10.0,NW,10.4,21.9,N/A,,Clear,320,2012-10-15 17:55:00
2:15 PM,69.8,42.8,38,29.94,10.0,WNW,10.4,20.7,N/A,,Clear,290,2012-10-15 18:15:00
2:35 PM,71.6,41.0,33,29.93,10.0,NW,10.4,16.1,N/A,,Clear,320,2012-10-15 18:35:00
2:55 PM,69.8,41.0,35,29.93,10.0,NW,5.8,18.4,N/A,,Clear,320,2012-10-15 18:55:00
3:15 PM,69.8,41.0,35,29.92,10.0,NW,6.9,16.1,N/A,,Clear,310,2012-10-15 19:15:00
3:35 PM,69.8,37.4,31,29.92,10.0,WNW,8.1,-,N/A,,Clear,290,2012-10-15 19:35:00
3:55 PM,71.6,39.2,31,29.92,10.0,NW,6.9,-,N/A,,Scattered Clouds,320,2012-10-15 19:55:00
4:15 PM,69.8,37.4,31,29.92,10.0,WNW,9.2,19.6,N/A,,Clear,300,2012-10-15 20:15:00
4:35 PM,68.0,37.4,33,29.92,10.0,WNW,5.8,-,N/A,,Clear,300,2012-10-15 20:35:00
4:55 PM,69.8,37.4,31,29.92,10.0,WNW,6.9,-,N/A,,Clear,300,2012-10-15 20:55:00
5:15 PM,69.8,33.8,27,29.92,10.0,WNW,9.2,-,N/A,,Scattered Clouds,300,2012-10-15 21:15:00
5:35 PM,68.0,41.0,37,29.92,10.0,WNW,5.8,-,N/A,,Scattered Clouds,300,2012-10-15 21:35:00
5:55 PM,68.0,37.4,33,29.92,10.0,NNW,8.1,-,N/A,,Scattered Clouds,330,2012-10-15 21:55:00
6:15 PM,66.2,35.6,32,29.93,10.0,NW,6.9,16.1,N/A,,Clear,320,2012-10-15 22:15:00
6:35 PM,64.4,37.4,37,29.93,10.0,NW,5.8,-,N/A,,Clear,320,2012-10-15 22:35:00
6:55 PM,62.6,41.0,45,29.93,10.0,NW,4.6,-,N/A,,Clear,310,2012-10-15 22:55:00
7:15 PM,60.8,42.8,52,29.94,10.0,NW,4.6,-,N/A,,Clear,310,2012-10-15 23:15:00
7:35 PM,59.0,42.8,55,29.94,10.0,WNW,4.6,-,N/A,,Clear,300,2012-10-15 23:35:00
7:55 PM,59.0,39.2,48,29.94,10.0,Calm,Calm,-,N/A,,Clear,0,2012-10-15 23:55:00
8:15 PM,55.4,42.8,63,29.94,10.0,WNW,4.6,-,N/A,,Clear,300,2012-10-16 00:15:00
8:35 PM,57.2,39.2,51,29.95,10.0,Calm,Calm,-,N/A,,Clear,0,2012-10-16 00:35:00
8:55 PM,57.2,37.4,48,29.95,10.0,Calm,Calm,-,N/A,,Clear,0,2012-10-16 00:55:00
9:15 PM,57.2,37.4,48,29.96,10.0,Calm,Calm,-,N/A,,Clear,0,2012-10-16 01:15:00
9:35 PM,55.4,37.4,51,29.97,10.0,Calm,Calm,-,N/A,,Clear,0,2012-10-16 01:35:00
9:55 PM,53.6,41.0,62,29.96,10.0,NW,4.6,-,N/A,,Clear,310,2012-10-16 01:55:00
10:15 PM,53.6,41.0,62,29.96,10.0,Calm,Calm,-,N/A,,Clear,0,2012-10-16 02:15:00
10:35 PM,51.8,42.8,71,29.97,10.0,Calm,Calm,-,N/A,,Clear,0,2012-10-16 02:35:00
10:55 PM,51.8,42.8,71,29.96,10.0,NW,4.6,-,N/A,,Clear,320,2012-10-16 02:55:00
11:15 PM,51.8,41.0,67,29.97,10.0,WNW,3.5,-,N/A,,Clear,300,2012-10-16 03:15:00
11:35 PM,51.8,39.2,62,29.97,10.0,NNW,3.5,-,N/A,,Clear,340,2012-10-16 03:35:00
11:55 PM,51.8,39.2,62,29.97,10.0,Calm,Calm,-,N/A,,Clear,0,2012-10-16 03:55:00